Savannah, GA

4:23 AM EDT on April 23, 2017 (GMT -0400)
Savannah International

Weather History for KSAV - July, 2013

Change the Weather History Date:

Sunday, July 7, 2013

  Actual Average Record
Temperature  
Mean Temperature 82 °F 82 °F  
Max Temperature 89 °F 92 °F 101 °F (1977)
Min Temperature 74 °F 73 °F 61 °F (1964)
Degree Days  
Heating Degree Days 0 0  
Month to date heating degree days 0 0  
Since 1 June heating degree days 0 0  
Since 1 July heating degree days 0 0  
Cooling Degree Days 17 17  
Month to date cooling degree days 113 119  
Year to date cooling degree days 939 968  
Since 1 June cooling degree days 581 565  
Growing Degree Days 31 (Base 50)    
Moisture  
Dew Point 72 °F    
Average Humidity 75    
Maximum Humidity 94    
Minimum Humidity 56    
Precipitation  
Precipitation 0.00 in 0.18 in 3.28 in (1979)
Month to date precipitation 1.83 1.18  
Year to date precipitation 29.65 23.39  
Sea Level Pressure  
Sea Level Pressure 30.15 in    
Wind  
Wind Speed 6 mph (SSE)    
Max Wind Speed 16 mph    
Max Gust Speed 21 mph    
Visibility 10 miles    
Events      
T = Trace of Precipitation, MM = Missing Value Source: NWS Daily Summary

Daily Weather History Graph

Daily Weather History Graph

Search for Another Location

Airport or City:

Trip Planner

Search our weather history database for the weather conditions in past years. The results will help you decide how hot, cold, wet, or windy it might be!

Date:

Astronomy

Jul. 07, 2013 Rise Set
Actual Time 6:24 AM EDT 8:34 PM EDT
Civil Twilight 5:56 AM EDT 9:02 PM EDT
Nautical Twilight 5:22 AM EDT 9:36 PM EDT
Astronomical Twilight 4:45 AM EDT 10:13 PM EDT
Moon 5:56 AM EDT (7/7) 8:01 PM EDT (7/7)
Length of Visible Light 15h 05m
Length of Day
14h 09m
Waning Crescent, 0% of the Moon is Illuminated
Jul 7
Waning Crescent
Jul 8
New
Jul 15
First Quarter
Jul 22
Full
Jul 29
Last Quarter

Hourly Weather History & Observations

Time (EDT) Temp. Heat Index Dew Point Humidity Pressure Visibility Wind Dir Wind Speed Gust Speed Precip Events Conditions
12:53 AM 77.0 °F - 73.9 °F 90% 30.16 in 10.0 mi SSE 4.6 mph - N/A   Clear
1:53 AM 75.9 °F - 73.0 °F 91% 30.16 in 10.0 mi SSE 3.5 mph - N/A   Clear
2:53 AM 77.0 °F - 73.0 °F 88% 30.15 in 10.0 mi Calm Calm - N/A   Scattered Clouds
3:53 AM 75.9 °F - 73.0 °F 91% 30.14 in 10.0 mi Calm Calm - N/A   Scattered Clouds
4:53 AM 75.9 °F - 73.0 °F 91% 30.14 in 10.0 mi Calm Calm - N/A   Clear
5:53 AM 75.0 °F - 73.0 °F 94% 30.15 in 10.0 mi Calm Calm - N/A   Partly Cloudy
6:53 AM 73.9 °F - 72.0 °F 93% 30.16 in 8.0 mi Calm Calm - N/A   Scattered Clouds
7:53 AM 78.1 °F - 73.9 °F 87% 30.17 in 10.0 mi Calm Calm - N/A   Scattered Clouds
8:53 AM 81.0 °F 86.2 °F 73.9 °F 79% 30.18 in 10.0 mi SSE 4.6 mph - N/A   Scattered Clouds
9:53 AM 82.9 °F 88.8 °F 73.0 °F 72% 30.19 in 10.0 mi SSE 8.1 mph - N/A   Mostly Cloudy
10:53 AM 84.0 °F 90.2 °F 73.0 °F 69% 30.18 in 10.0 mi South 6.9 mph - N/A   Mostly Cloudy
11:53 AM 84.9 °F 89.4 °F 70.0 °F 61% 30.19 in 10.0 mi South 11.5 mph - N/A   Mostly Cloudy
12:53 PM 87.1 °F 92.8 °F 71.1 °F 59% 30.18 in 10.0 mi SE 11.5 mph - N/A   Mostly Cloudy
1:53 PM 86.0 °F 91.5 °F 71.1 °F 61% 30.17 in 10.0 mi SSE 12.7 mph - N/A   Mostly Cloudy
2:53 PM 88.0 °F 94.7 °F 72.0 °F 59% 30.15 in 10.0 mi SSE 12.7 mph 19.6 mph N/A   Mostly Cloudy
3:53 PM 89.1 °F 95.0 °F 71.1 °F 55% 30.13 in 10.0 mi SSE 11.5 mph - N/A   Scattered Clouds
4:53 PM 87.1 °F 92.8 °F 71.1 °F 59% 30.12 in 10.0 mi SE 11.5 mph - N/A   Scattered Clouds
5:53 PM 86.0 °F 90.7 °F 70.0 °F 59% 30.11 in 10.0 mi SE 11.5 mph - N/A   Mostly Cloudy
6:53 PM 84.9 °F 89.4 °F 70.0 °F 61% 30.12 in 10.0 mi SSE 11.5 mph - N/A   Mostly Cloudy
7:53 PM 82.0 °F 85.5 °F 69.1 °F 65% 30.12 in 10.0 mi SSE 10.4 mph - N/A   Mostly Cloudy
8:53 PM 79.0 °F - 71.1 °F 77% 30.13 in 10.0 mi South 5.8 mph - N/A   Mostly Cloudy
9:53 PM 79.0 °F - 72.0 °F 79% 30.14 in 10.0 mi SSE 5.8 mph - N/A   Scattered Clouds
10:53 PM 77.0 °F - 72.0 °F 84% 30.16 in 10.0 mi South 3.5 mph - N/A   Scattered Clouds
11:53 PM 75.0 °F - 72.0 °F 90% 30.18 in 10.0 mi Calm Calm - N/A   Scattered Clouds